RYR363C LEMI-EGHH

Flight info

Callsign RYR363C
Flight time 2h 2m
Altitude 38000
Route ALT N851 MITOS N608 COMPI Y90 USKAR N863 GIROM DCT GONUP DCT MANAK DCT EPAPU UM184 EKRAS UT507 REVTU UY110 ORIST Y110 THRED
Aircraft B38M/M-SDE1FGHILORVWXY/HB1

Departure

Time 2026-04-26 17:12
Airport Region of Murcia International Airport (LEMI)

Arrival

Time 2026-04-26 19:14
Airport Bournemouth Airport (EGHH)
Time Latitude Longitude Altitude Speed Heading
2026-04-26 16:55 37.80403 -1.13046 649 ft 0 kts 316°
2026-04-26 17:02 37.80397 -1.13039 649 ft 3 kts 314°
2026-04-26 17:02 37.80384 -1.13020 649 ft 3 kts 303°
2026-04-26 17:02 37.80375 -1.12998 649 ft 3 kts 287°
2026-04-26 17:02 37.80372 -1.12974 649 ft 3 kts 263°
2026-04-26 17:03 37.80377 -1.12953 652 ft 2 kts 231°
2026-04-26 17:03 37.80380 -1.12948 652 ft 0 kts 225°
2026-04-26 17:08 37.80350 -1.12987 651 ft 15 kts 225°
2026-04-26 17:08 37.80248 -1.13117 649 ft 23 kts 225°
2026-04-26 17:08 37.80146 -1.13117 649 ft 18 kts 134°
2026-04-26 17:08 37.80065 -1.13103 650 ft 13 kts 222°
2026-04-26 17:09 37.79960 -1.13236 652 ft 29 kts 225°
2026-04-26 17:09 37.79859 -1.13365 655 ft 33 kts 225°
2026-04-26 17:09 37.79614 -1.13680 650 ft 39 kts 225°
2026-04-26 17:09 37.79493 -1.13837 650 ft 16 kts 226°
2026-04-26 17:10 37.79403 -1.13804 649 ft 11 kts 125°
2026-04-26 17:10 37.79401 -1.13799 649 ft 0 kts 118°
2026-04-26 17:10 37.79397 -1.13778 648 ft 9 kts 101°
2026-04-26 17:11 37.79409 -1.13635 647 ft 17 kts 39°
2026-04-26 17:11 37.79492 -1.13531 646 ft 18 kts 45°
2026-04-26 17:11 37.79647 -1.13331 650 ft 66 kts 46°
2026-04-26 17:11 37.80156 -1.12675 647 ft 140 kts 46°
2026-04-26 17:12 37.81795 -1.10496 2008 ft 173 kts 45°
2026-04-26 17:12 37.82677 -1.09440 2970 ft 184 kts 45°
2026-04-26 17:13 37.84778 -1.06942 4178 ft 229 kts 44°
2026-04-26 17:13 37.85965 -1.05539 5126 ft 233 kts 45°
2026-04-26 17:13 37.88583 -1.02442 5900 ft 298 kts 44°
2026-04-26 17:14 37.90235 -1.00569 5882 ft 339 kts 37°
2026-04-26 17:14 37.94984 -0.98514 7178 ft 356 kts 14°
2026-04-26 17:14 37.97338 -0.97701 8636 ft 345 kts 21°
2026-04-26 17:15 38.01817 -0.95990 10965 ft 340 kts 19°
2026-04-26 17:15 38.04126 -0.95110 11492 ft 353 kts 19°
2026-04-26 17:15 38.06496 -0.94205 12294 ft 356 kts 19°
2026-04-26 17:16 38.08885 -0.93290 13084 ft 361 kts 18°
2026-04-26 17:16 38.11302 -0.92363 13858 ft 365 kts 19°
2026-04-26 17:16 38.12916 -0.91744 14310 ft 368 kts 19°
2026-04-26 17:16 38.15379 -0.90799 14982 ft 372 kts 19°
2026-04-26 17:17 38.17860 -0.89846 15687 ft 374 kts 18°
2026-04-26 17:17 38.20364 -0.88883 16329 ft 378 kts 18°
2026-04-26 17:17 38.22887 -0.87913 16999 ft 381 kts 18°
2026-04-26 17:17 38.25435 -0.86932 17651 ft 384 kts 18°
2026-04-26 17:18 38.28000 -0.85944 18303 ft 387 kts 18°
2026-04-26 17:18 38.30590 -0.84945 18862 ft 391 kts 18°
2026-04-26 17:18 38.33204 -0.83936 19410 ft 394 kts 18°
2026-04-26 17:18 38.35834 -0.82921 19946 ft 397 kts 18°
2026-04-26 17:19 38.41161 -0.80862 21011 ft 403 kts 18°
2026-04-26 17:19 38.43857 -0.79819 21539 ft 406 kts 18°
2026-04-26 17:19 38.46571 -0.78767 22052 ft 409 kts 19°
2026-04-26 17:20 38.49306 -0.77707 22557 ft 412 kts 19°
2026-04-26 17:20 38.51126 -0.77001 22878 ft 414 kts 19°
2026-04-26 17:20 38.54840 -0.75559 23478 ft 420 kts 19°
2026-04-26 17:20 38.57653 -0.74467 23849 ft 425 kts 19°
2026-04-26 17:21 38.60490 -0.73364 24297 ft 427 kts 18°
2026-04-26 17:21 38.63303 -0.72269 24695 ft 430 kts 18°
2026-04-26 17:21 38.66177 -0.71150 25092 ft 432 kts 18°
2026-04-26 17:21 38.69063 -0.70025 25494 ft 434 kts 18°
2026-04-26 17:22 38.71969 -0.68890 25888 ft 437 kts 18°
2026-04-26 17:22 38.74887 -0.67751 26273 ft 440 kts 18°
2026-04-26 17:22 38.77824 -0.66603 26674 ft 442 kts 18°
2026-04-26 17:22 38.80773 -0.65450 27018 ft 445 kts 18°
2026-04-26 17:23 38.83750 -0.64283 27402 ft 447 kts 18°
2026-04-26 17:23 38.86739 -0.63113 27763 ft 450 kts 18°
2026-04-26 17:23 38.89740 -0.61936 28123 ft 452 kts 18°
2026-04-26 17:23 38.92760 -0.60750 28460 ft 455 kts 18°
2026-04-26 17:24 38.95804 -0.59554 28803 ft 458 kts 18°
2026-04-26 17:24 38.98862 -0.58351 29148 ft 460 kts 18°
2026-04-26 17:24 39.01931 -0.57143 29454 ft 463 kts 17°
2026-04-26 17:24 39.05024 -0.55925 29847 ft 464 kts 17°
2026-04-26 17:25 39.08110 -0.54708 30281 ft 464 kts 18°
2026-04-26 17:25 39.11190 -0.53492 30711 ft 462 kts 18°
2026-04-26 17:25 39.14217 -0.52296 31165 ft 460 kts 17°
2026-04-26 17:25 39.17264 -0.51092 31627 ft 457 kts 17°
2026-04-26 17:26 39.20309 -0.49886 32023 ft 456 kts 17°
2026-04-26 17:26 39.23338 -0.48687 32421 ft 455 kts 17°
2026-04-26 17:26 39.26362 -0.47488 32783 ft 455 kts 17°
2026-04-26 17:26 39.29382 -0.46289 33186 ft 454 kts 17°
2026-04-26 17:27 39.32403 -0.45089 33540 ft 453 kts 17°
2026-04-26 17:27 39.35417 -0.43891 33925 ft 452 kts 17°
2026-04-26 17:27 39.38429 -0.42692 34183 ft 454 kts 17°
2026-04-26 17:27 39.41447 -0.41490 34465 ft 454 kts 17°
2026-04-26 17:28 39.44464 -0.40288 34768 ft 453 kts 17°
2026-04-26 17:28 39.47471 -0.39088 35091 ft 452 kts 17°
2026-04-26 17:28 39.50473 -0.37888 35373 ft 451 kts 17°
2026-04-26 17:28 39.53469 -0.36692 35687 ft 450 kts 17°
2026-04-26 17:29 39.56452 -0.35498 35945 ft 449 kts 17°
2026-04-26 17:29 39.58431 -0.34705 36153 ft 448 kts 17°
2026-04-26 17:29 39.62406 -0.33112 36510 ft 447 kts 16°
2026-04-26 17:29 39.65381 -0.31919 36797 ft 445 kts 16°
2026-04-26 17:30 39.68342 -0.30729 37018 ft 446 kts 16°
2026-04-26 17:30 39.71262 -0.29556 37261 ft 444 kts 16°
2026-04-26 17:30 39.74217 -0.28368 37467 ft 445 kts 16°
2026-04-26 17:30 39.77176 -0.27177 37665 ft 444 kts 16°
2026-04-26 17:31 39.80135 -0.25984 37871 ft 444 kts 16°
2026-04-26 17:31 39.83087 -0.24793 38075 ft 444 kts 16°
2026-04-26 17:31 39.88990 -0.22408 38122 ft 443 kts 15°
2026-04-26 17:32 39.94858 -0.20035 38137 ft 442 kts 15°
2026-04-26 17:32 40.00735 -0.17652 38131 ft 442 kts 16°
2026-04-26 17:33 40.06613 -0.15265 38133 ft 443 kts 15°
2026-04-26 17:34 40.15437 -0.11674 38109 ft 442 kts 16°
2026-04-26 17:34 40.21287 -0.09288 38116 ft 443 kts 16°
2026-04-26 17:35 40.27183 -0.06879 38115 ft 444 kts 15°
2026-04-26 17:35 40.33092 -0.04460 38115 ft 444 kts 16°
2026-04-26 17:36 40.39002 -0.02035 38117 ft 444 kts 16°
2026-04-26 17:36 40.44909 0.00393 38146 ft 445 kts 17°
2026-04-26 17:37 40.50779 0.02809 38134 ft 445 kts 16°
2026-04-26 17:37 40.56692 0.05248 38112 ft 445 kts 15°
2026-04-26 17:38 40.65553 0.08910 38098 ft 445 kts 15°
2026-04-26 17:38 40.71466 0.11360 38105 ft 445 kts 16°
2026-04-26 17:39 40.77372 0.13812 38090 ft 445 kts 16°
2026-04-26 17:39 40.83284 0.16271 38105 ft 445 kts 16°
2026-04-26 17:40 40.88194 0.18317 38106 ft 445 kts 15°
2026-04-26 17:40 40.95105 0.21202 38094 ft 446 kts 15°
2026-04-26 17:41 41.01024 0.23678 38086 ft 446 kts 16°
2026-04-26 17:41 41.06949 0.26160 38086 ft 446 kts 16°
2026-04-26 17:42 41.12831 0.28630 38083 ft 446 kts 16°
2026-04-26 17:42 41.18741 0.31115 38083 ft 445 kts 15°
2026-04-26 17:43 41.24639 0.33601 38090 ft 445 kts 15°
2026-04-26 17:43 41.30535 0.36091 38082 ft 445 kts 15°
2026-04-26 17:44 41.36435 0.38586 38086 ft 445 kts 16°
2026-04-26 17:44 41.42347 0.41092 38079 ft 446 kts 16°
2026-04-26 17:45 41.48269 0.43607 38075 ft 446 kts 16°
2026-04-26 17:45 41.54152 0.46109 38094 ft 446 kts 17°
2026-04-26 17:46 41.60067 0.48630 38093 ft 446 kts 17°
2026-04-26 17:46 41.65993 0.51162 38103 ft 446 kts 16°
2026-04-26 17:47 41.70910 0.53265 38101 ft 446 kts 17°
2026-04-26 17:47 41.77825 0.56229 38106 ft 446 kts 17°
2026-04-26 17:48 41.83751 0.58775 38104 ft 446 kts 17°
2026-04-26 17:48 41.89663 0.61320 38099 ft 446 kts 17°
2026-04-26 17:49 41.95577 0.63871 38087 ft 446 kts 17°
2026-04-26 17:49 42.01488 0.66425 38103 ft 446 kts 17°
2026-04-26 17:50 42.07385 0.68978 38110 ft 445 kts 17°
2026-04-26 17:50 42.13248 0.71521 38113 ft 445 kts 17°
2026-04-26 17:51 42.19148 0.74085 38115 ft 445 kts 17°
2026-04-26 17:51 42.25022 0.76644 38122 ft 442 kts 17°
2026-04-26 17:52 42.30872 0.79196 38148 ft 442 kts 17°
2026-04-26 17:52 42.36725 0.81755 38148 ft 442 kts 17°
2026-04-26 17:53 42.42571 0.84316 38173 ft 440 kts 17°
2026-04-26 17:54 42.51261 0.88132 38161 ft 438 kts 17°
2026-04-26 17:54 42.57055 0.90682 38175 ft 438 kts 17°
2026-04-26 17:55 42.62847 0.93237 38200 ft 437 kts 17°
2026-04-26 17:55 42.68588 0.95774 38183 ft 436 kts 17°
2026-04-26 17:56 42.74369 0.98321 38176 ft 436 kts 14°
2026-04-26 17:56 42.80313 0.98471 38195 ft 430 kts 347°
2026-04-26 17:57 42.86187 0.96665 38148 ft 433 kts 346°
2026-04-26 17:57 42.92055 0.94703 38158 ft 434 kts 346°
2026-04-26 17:58 43.03778 0.90656 38151 ft 434 kts 345°
2026-04-26 17:59 43.12544 0.87614 38145 ft 435 kts 345°
2026-04-26 17:59 43.18408 0.85574 38144 ft 435 kts 345°
2026-04-26 18:00 43.24274 0.83529 38135 ft 435 kts 345°
2026-04-26 18:00 43.30147 0.81478 38139 ft 435 kts 345°
2026-04-26 18:01 43.36011 0.79426 38128 ft 435 kts 345°
2026-04-26 18:01 43.41881 0.77368 38133 ft 435 kts 345°
2026-04-26 18:02 43.45800 0.75957 38123 ft 436 kts 341°
2026-04-26 18:02 43.53269 0.71664 38118 ft 437 kts 336°
2026-04-26 18:03 43.57934 0.68922 38136 ft 438 kts 336°
2026-04-26 18:03 43.63533 0.65620 38137 ft 438 kts 336°
2026-04-26 18:04 43.69136 0.62309 38136 ft 438 kts 336°
2026-04-26 18:05 43.77533 0.57333 38133 ft 438 kts 336°
2026-04-26 18:05 43.83134 0.54006 38140 ft 438 kts 336°
2026-04-26 18:06 43.88734 0.50673 38135 ft 438 kts 336°
2026-04-26 18:06 43.94297 0.47355 38121 ft 438 kts 336°
2026-04-26 18:07 43.99898 0.44008 38128 ft 438 kts 336°
2026-04-26 18:07 44.05489 0.40659 38132 ft 438 kts 336°
2026-04-26 18:08 44.11093 0.37295 38120 ft 438 kts 336°
2026-04-26 18:08 44.16699 0.33924 38134 ft 439 kts 336°
2026-04-26 18:09 44.22267 0.30569 38138 ft 439 kts 336°
2026-04-26 18:09 44.27868 0.27186 38125 ft 438 kts 335°
2026-04-26 18:10 44.33469 0.23797 38128 ft 438 kts 335°
2026-04-26 18:10 44.39067 0.20403 38127 ft 438 kts 335°
2026-04-26 18:11 44.44661 0.17003 38136 ft 438 kts 335°
2026-04-26 18:11 44.50251 0.13599 38137 ft 438 kts 335°
2026-04-26 18:12 44.55841 0.10188 38131 ft 438 kts 335°
2026-04-26 18:12 44.61438 0.06765 38134 ft 438 kts 335°
2026-04-26 18:13 44.67022 0.03343 38135 ft 438 kts 335°
2026-04-26 18:13 44.72575 -0.00067 38134 ft 438 kts 335°
2026-04-26 18:14 44.78158 -0.03503 38133 ft 438 kts 335°
2026-04-26 18:14 44.83738 -0.06944 38133 ft 438 kts 335°
2026-04-26 18:15 44.89322 -0.10396 38137 ft 438 kts 335°
2026-04-26 18:15 44.94907 -0.13854 38132 ft 438 kts 335°
2026-04-26 18:16 45.00489 -0.17319 38145 ft 438 kts 334°
2026-04-26 18:16 45.08844 -0.22519 38140 ft 437 kts 334°
2026-04-26 18:17 45.14406 -0.25989 38142 ft 437 kts 334°
2026-04-26 18:17 45.19030 -0.28880 38144 ft 437 kts 334°
2026-04-26 18:18 45.25523 -0.32948 38144 ft 436 kts 334°
2026-04-26 18:18 45.31037 -0.36411 38151 ft 436 kts 334°
2026-04-26 18:19 45.36593 -0.39908 38146 ft 436 kts 334°
2026-04-26 18:19 45.42138 -0.43405 38146 ft 436 kts 334°
2026-04-26 18:20 45.47677 -0.46906 38143 ft 436 kts 334°
2026-04-26 18:20 45.52288 -0.49826 38138 ft 436 kts 334°
2026-04-26 18:21 45.58765 -0.53937 38148 ft 436 kts 334°
2026-04-26 18:21 45.64297 -0.57457 38138 ft 435 kts 334°
2026-04-26 18:22 45.69829 -0.60983 38142 ft 435 kts 334°
2026-04-26 18:22 45.75330 -0.64498 38163 ft 435 kts 334°
2026-04-26 18:23 45.80861 -0.68040 38168 ft 435 kts 334°
2026-04-26 18:23 45.86387 -0.71586 38166 ft 435 kts 334°
2026-04-26 18:24 45.91914 -0.75141 38169 ft 435 kts 334°
2026-04-26 18:24 45.97437 -0.78700 38174 ft 435 kts 334°
2026-04-26 18:25 46.02963 -0.82268 38171 ft 435 kts 334°
2026-04-26 18:25 46.08487 -0.85842 38169 ft 435 kts 334°
2026-04-26 18:26 46.14014 -0.89427 38169 ft 435 kts 334°
2026-04-26 18:26 46.19507 -0.92997 38169 ft 435 kts 333°
2026-04-26 18:27 46.22357 -0.94469 38156 ft 437 kts 346°
2026-04-26 18:27 46.25340 -0.95351 38185 ft 438 kts 345°
2026-04-26 18:27 46.31309 -0.97236 38184 ft 439 kts 345°
2026-04-26 18:28 46.37282 -0.99076 38177 ft 439 kts 345°
2026-04-26 18:28 46.43269 -1.00917 38168 ft 440 kts 345°
2026-04-26 18:29 46.49253 -1.02760 38171 ft 440 kts 345°
2026-04-26 18:29 46.55238 -1.04608 38173 ft 439 kts 345°
2026-04-26 18:30 46.61224 -1.06461 38179 ft 440 kts 345°
2026-04-26 18:30 46.67220 -1.08320 38178 ft 440 kts 345°
2026-04-26 18:31 46.73176 -1.10172 38180 ft 440 kts 345°
2026-04-26 18:31 46.79173 -1.12040 38180 ft 440 kts 345°
2026-04-26 18:32 46.85163 -1.13911 38178 ft 441 kts 345°
2026-04-26 18:32 46.91162 -1.15788 38176 ft 441 kts 345°
2026-04-26 18:33 46.97160 -1.17670 38178 ft 441 kts 345°
2026-04-26 18:33 47.03162 -1.19557 38168 ft 441 kts 345°
2026-04-26 18:34 47.09159 -1.21447 38164 ft 441 kts 345°
2026-04-26 18:34 47.15158 -1.23342 38159 ft 441 kts 345°
2026-04-26 18:35 47.21180 -1.25249 38166 ft 443 kts 345°
2026-04-26 18:35 47.27218 -1.27165 38158 ft 444 kts 345°
2026-04-26 18:36 47.33253 -1.29084 38157 ft 444 kts 345°
2026-04-26 18:36 47.39248 -1.30996 38167 ft 444 kts 345°
2026-04-26 18:37 47.45292 -1.32928 38156 ft 444 kts 345°
2026-04-26 18:37 47.51334 -1.34863 38158 ft 444 kts 345°
2026-04-26 18:38 47.57372 -1.36801 38162 ft 444 kts 345°
2026-04-26 18:38 47.63415 -1.38746 38170 ft 444 kts 345°
2026-04-26 18:39 47.69459 -1.40694 38169 ft 444 kts 345°
2026-04-26 18:39 47.75638 -1.41517 38176 ft 448 kts 354°
2026-04-26 18:40 47.81867 -1.42008 38191 ft 448 kts 354°
2026-04-26 18:40 47.88063 -1.42476 38176 ft 448 kts 354°
2026-04-26 18:41 47.94297 -1.42946 38177 ft 449 kts 354°
2026-04-26 18:41 48.00536 -1.43418 38191 ft 449 kts 354°
2026-04-26 18:42 48.06773 -1.43866 38184 ft 449 kts 354°
2026-04-26 18:42 48.13022 -1.44313 38190 ft 449 kts 354°
2026-04-26 18:43 48.19261 -1.44762 38183 ft 449 kts 354°
2026-04-26 18:43 48.25509 -1.45212 38191 ft 450 kts 354°
2026-04-26 18:44 48.31763 -1.45663 38186 ft 450 kts 354°
2026-04-26 18:44 48.38020 -1.46116 38188 ft 450 kts 354°
2026-04-26 18:45 48.44278 -1.46570 38195 ft 450 kts 354°
2026-04-26 18:45 48.50544 -1.47025 38188 ft 451 kts 354°
2026-04-26 18:46 48.56772 -1.47479 38192 ft 451 kts 354°
2026-04-26 18:46 48.63042 -1.47938 38188 ft 451 kts 354°
2026-04-26 18:47 48.69315 -1.48397 38197 ft 452 kts 354°
2026-04-26 18:47 48.75603 -1.48859 38194 ft 452 kts 354°
2026-04-26 18:48 48.80826 -1.49243 38198 ft 452 kts 354°
2026-04-26 18:48 48.88165 -1.49785 38125 ft 451 kts 354°
2026-04-26 18:49 48.91277 -1.50321 37130 ft 451 kts 344°
2026-04-26 18:49 48.94366 -1.51345 36213 ft 456 kts 345°
2026-04-26 18:49 48.97462 -1.52327 35648 ft 453 kts 345°
2026-04-26 18:49 48.99496 -1.52979 35315 ft 450 kts 345°
2026-04-26 18:50 49.02549 -1.53959 34711 ft 448 kts 345°
2026-04-26 18:50 49.05611 -1.54944 33906 ft 451 kts 345°
2026-04-26 18:50 49.08694 -1.55936 32964 ft 455 kts 345°
2026-04-26 18:50 49.11807 -1.56939 32153 ft 457 kts 345°
2026-04-26 18:51 49.14919 -1.57944 31451 ft 456 kts 345°
2026-04-26 18:51 49.18030 -1.58949 30718 ft 457 kts 345°
2026-04-26 18:51 49.21149 -1.59959 29796 ft 460 kts 345°
2026-04-26 18:51 49.24291 -1.60978 28784 ft 463 kts 345°
2026-04-26 18:52 49.27441 -1.62001 28058 ft 461 kts 345°
2026-04-26 18:52 49.30561 -1.63015 27437 ft 457 kts 345°
2026-04-26 18:52 49.33682 -1.64030 26597 ft 459 kts 345°
2026-04-26 18:52 49.36794 -1.65044 26004 ft 455 kts 345°
2026-04-26 18:53 49.39872 -1.66049 25385 ft 452 kts 345°
2026-04-26 18:53 49.42944 -1.67052 24746 ft 450 kts 345°
2026-04-26 18:53 49.45999 -1.68051 24113 ft 448 kts 345°
2026-04-26 18:53 49.49042 -1.69047 23416 ft 447 kts 345°
2026-04-26 18:54 49.52044 -1.70032 22747 ft 444 kts 345°
2026-04-26 18:54 49.55053 -1.71019 22110 ft 441 kts 345°
2026-04-26 18:54 49.58040 -1.72001 21486 ft 437 kts 345°
2026-04-26 18:54 49.61027 -1.72843 20710 ft 438 kts 351°
2026-04-26 18:55 49.64102 -1.72901 19673 ft 448 kts
2026-04-26 18:55 49.67193 -1.72630 18833 ft 441 kts
2026-04-26 18:55 49.70236 -1.72391 17987 ft 434 kts
2026-04-26 18:55 49.73224 -1.72165 17359 ft 422 kts
2026-04-26 18:56 49.76105 -1.71950 16879 ft 409 kts
2026-04-26 18:56 49.78906 -1.71742 16337 ft 399 kts
2026-04-26 18:56 49.81661 -1.71537 15799 ft 391 kts
2026-04-26 18:56 49.84374 -1.71335 15270 ft 390 kts
2026-04-26 18:57 49.87048 -1.71136 14744 ft 390 kts
2026-04-26 18:57 49.88878 -1.70999 14402 ft 389 kts
2026-04-26 18:57 49.92462 -1.70732 13665 ft 389 kts
2026-04-26 18:57 49.95163 -1.70530 13118 ft 387 kts
2026-04-26 18:58 49.97846 -1.70330 12618 ft 385 kts
2026-04-26 18:58 50.00515 -1.70130 12118 ft 382 kts
2026-04-26 18:58 50.03143 -1.69932 11848 ft 374 kts
2026-04-26 18:58 50.05702 -1.69740 11682 ft 362 kts
2026-04-26 18:59 50.08184 -1.69553 11503 ft 352 kts
2026-04-26 18:59 50.10605 -1.69371 11325 ft 343 kts
2026-04-26 18:59 50.12955 -1.69193 11158 ft 333 kts
2026-04-26 18:59 50.15242 -1.69021 11000 ft 324 kts
2026-04-26 19:00 50.17462 -1.68853 10857 ft 315 kts
2026-04-26 19:00 50.19625 -1.68690 10710 ft 307 kts
2026-04-26 19:00 50.21726 -1.68531 10563 ft 298 kts
2026-04-26 19:00 50.23743 -1.68378 10432 ft 290 kts
2026-04-26 19:01 50.25734 -1.68227 10271 ft 283 kts
2026-04-26 19:01 50.27715 -1.68078 9977 ft 281 kts
2026-04-26 19:01 50.29639 -1.67932 9646 ft 280 kts
2026-04-26 19:01 50.31577 -1.67784 9337 ft 278 kts
2026-04-26 19:02 50.33501 -1.67637 9047 ft 276 kts
2026-04-26 19:02 50.35412 -1.67492 8758 ft 273 kts
2026-04-26 19:02 50.37305 -1.67348 8470 ft 271 kts
2026-04-26 19:02 50.38548 -1.67253 8282 ft 270 kts
2026-04-26 19:03 50.41041 -1.67064 7902 ft 267 kts
2026-04-26 19:03 50.42884 -1.66924 7712 ft 261 kts
2026-04-26 19:03 50.44666 -1.66939 7576 ft 252 kts 349°
2026-04-26 19:03 50.46264 -1.67866 7436 ft 241 kts 326°
2026-04-26 19:04 50.47489 -1.69561 7344 ft 232 kts 311°
2026-04-26 19:04 50.48565 -1.71448 7318 ft 232 kts 310°
2026-04-26 19:04 50.49628 -1.73355 7297 ft 232 kts 310°
2026-04-26 19:04 50.50692 -1.75261 7287 ft 232 kts 310°
2026-04-26 19:05 50.52823 -1.79109 7003 ft 236 kts 310°
2026-04-26 19:05 50.53913 -1.81088 6572 ft 243 kts 310°
2026-04-26 19:05 50.55011 -1.83105 6137 ft 249 kts 310°
2026-04-26 19:06 50.56143 -1.85199 5677 ft 255 kts 310°
2026-04-26 19:06 50.57302 -1.87351 5237 ft 260 kts 310°
2026-04-26 19:06 50.58484 -1.89559 4778 ft 266 kts 310°
2026-04-26 19:06 50.59676 -1.91818 4343 ft 269 kts 310°
2026-04-26 19:07 50.60847 -1.94073 4074 ft 263 kts 310°
2026-04-26 19:07 50.61986 -1.96279 3819 ft 256 kts 310°
2026-04-26 19:07 50.63100 -1.98426 3591 ft 249 kts 310°
2026-04-26 19:07 50.64176 -2.00509 3371 ft 241 kts 310°
2026-04-26 19:08 50.65193 -2.02485 3273 ft 223 kts 310°
2026-04-26 19:08 50.66141 -2.04338 3018 ft 212 kts 310°
2026-04-26 19:08 50.67042 -2.06110 2806 ft 202 kts 310°
2026-04-26 19:08 50.67912 -2.07791 2558 ft 194 kts 311°
2026-04-26 19:09 50.68800 -2.09299 2360 ft 182 kts 324°
2026-04-26 19:09 50.69865 -2.10126 2225 ft 165 kts 349°
2026-04-26 19:09 50.70963 -2.10322 1981 ft 152 kts
2026-04-26 19:09 50.72005 -2.10053 1774 ft 158 kts 20°
2026-04-26 19:10 50.73024 -2.09306 1939 ft 167 kts 35°
2026-04-26 19:10 50.73937 -2.08099 2150 ft 177 kts 53°
2026-04-26 19:10 50.74460 -2.06344 2378 ft 181 kts 78°
2026-04-26 19:10 50.74698 -2.04381 2342 ft 184 kts 77°
2026-04-26 19:11 50.75024 -2.02475 2259 ft 173 kts 76°
2026-04-26 19:11 50.75300 -2.00672 2067 ft 164 kts 78°
2026-04-26 19:11 50.75560 -1.98971 1816 ft 156 kts 75°
2026-04-26 19:11 50.75854 -1.97353 1550 ft 151 kts 76°
2026-04-26 19:12 50.76122 -1.95707 1357 ft 158 kts 77°
2026-04-26 19:12 50.76394 -1.94009 1238 ft 157 kts 76°
2026-04-26 19:12 50.76672 -1.92395 1021 ft 149 kts 76°
2026-04-26 19:12 50.76917 -1.90856 813 ft 141 kts 77°
2026-04-26 19:13 50.77168 -1.89356 579 ft 144 kts 76°
2026-04-26 19:13 50.77433 -1.87789 430 ft 150 kts 76°
2026-04-26 19:13 50.77685 -1.86206 223 ft 145 kts 75°
2026-04-26 19:13 50.77929 -1.84722 48 ft 132 kts 76°
2026-04-26 19:14 50.78106 -1.83658 46 ft 58 kts 76°
2026-04-26 19:14 50.78172 -1.83259 45 ft 27 kts 75°
2026-04-26 19:14 50.78195 -1.83058 46 ft 10 kts 131°
2026-04-26 19:14 50.78154 -1.83041 48 ft 9 kts 193°
2026-04-26 19:15 50.78100 -1.83148 48 ft 11 kts 233°
2026-04-26 19:15 50.78054 -1.83257 48 ft 13 kts 242°
2026-04-26 19:15 50.78011 -1.83392 48 ft 14 kts 243°
2026-04-26 19:15 50.77966 -1.83480 48 ft 6 kts 208°
2026-04-26 19:16 50.77917 -1.83488 48 ft 6 kts 172°
2026-04-26 19:16 50.77885 -1.83465 47 ft 5 kts 114°
2026-04-26 19:16 50.77884 -1.83395 48 ft 6 kts 87°
2026-04-26 19:16 50.77884 -1.83389 48 ft 0 kts 87°